Aberdeen, SD

12:24 PM CDT on October 20, 2017 (GMT -0500)
Aberdeen Regional

Weather History for KABR - October, 2012

Change the Weather History Date:

Thursday, October 4, 2012

  Actual Average Record
Temperature  
Mean Temperature 39 °F 51 °F  
Max Temperature 45 °F 64 °F 93 °F (1975)
Min Temperature 32 °F 38 °F 13 °F (1894)
Degree Days  
Heating Degree Days 26 15  
Month to date heating degree days 60 56  
Since 1 July heating degree days 302 330  
Cooling Degree Days 0 0  
Month to date cooling degree days 0 0  
Year to date cooling degree days 764 523  
Moisture  
Dew Point 31 °F    
Average Humidity 67    
Maximum Humidity 85    
Minimum Humidity 49    
Precipitation  
Precipitation 0.02 in 0.07 in 2.98 in (1926)
Month to date precipitation 0.02 0.32  
Year to date precipitation 12.47 18.80  
Snow  
Snow T in 0.00 in T in (2012)
Month to date snowfall T 0.0  
Since 1 July snowfall T T  
Snow Depth 0.00 in    
Sea Level Pressure  
Sea Level Pressure 30.20 in    
Wind  
Wind Speed 19 mph (NW)    
Max Wind Speed 30 mph    
Max Gust Speed 37 mph    
Visibility 10 miles    
Events Rain , Snow    
T = Trace of Precipitation, MM = Missing Value Source: NWS Daily Summary

Daily Weather History Graph

Daily Weather History Graph

Search for Another Location

Airport or City:

Trip Planner

Search our weather history database for the weather conditions in past years. The results will help you decide how hot, cold, wet, or windy it might be!

Date:

Astronomy

Oct. 04, 2012 Rise Set
Actual Time 7:36 AM CDT 7:07 PM CDT
Civil Twilight 7:06 AM CDT 7:36 PM CDT
Nautical Twilight 6:32 AM CDT 8:10 PM CDT
Astronomical Twilight 5:57 AM CDT 8:45 PM CDT
Moon 9:30 PM CDT (10/4) 12:07 PM CDT (10/4)
Length of Visible Light 12h 29m
Length of Day
11h 30m
Waning Gibbous, 82% of the Moon is Illuminated
Oct 4
Waning Gibbous
Oct 8
Last Quarter
Oct 15
New
Oct 21
First Quarter
Oct 29
Full

Hourly Weather History & Observations

Time (CDT) Temp. Windchill Dew Point Humidity Pressure Visibility Wind Dir Wind Speed Gust Speed Precip Events Conditions
12:43 AM 39.2 °F 28.5 °F 35.6 °F 87% 30.01 in 10.0 mi NW 24.2 mph 32.2 mph 0.00 in Rain Light Rain
12:53 AM 39.0 °F 28.5 °F 36.0 °F 89% 30.03 in 10.0 mi NW 23.0 mph 32.2 mph 0.00 in   Overcast
1:53 AM 37.0 °F 24.7 °F 34.0 °F 89% 30.06 in 9.0 mi NW 28.8 mph 36.8 mph 0.02 in Snow Light Snow
2:08 AM 37.4 °F 25.6 °F 33.8 °F 87% 30.05 in 9.0 mi NW 26.5 mph 32.2 mph 0.00 in Snow Light Snow
2:37 AM 37.4 °F 25.6 °F 33.8 °F 87% 30.05 in 9.0 mi NNW 26.5 mph 34.5 mph 0.00 in Snow Light Snow
2:53 AM 37.9 °F 27.3 °F 34.0 °F 86% 30.08 in 10.0 mi NNW 21.9 mph 31.1 mph 0.00 in Snow Light Snow
3:09 AM 37.4 °F 26.6 °F 35.6 °F 93% 30.07 in 10.0 mi NW 21.9 mph 31.1 mph 0.00 in   Overcast
3:39 AM 37.4 °F 25.9 °F 33.8 °F 87% 30.06 in 10.0 mi NW 25.3 mph 28.8 mph 0.00 in   Overcast
3:53 AM 37.9 °F 27.1 °F 34.0 °F 86% 30.09 in 10.0 mi NNW 23.0 mph 32.2 mph 0.00 in   Overcast
4:53 AM 37.9 °F 27.6 °F 33.1 °F 83% 30.12 in 10.0 mi NW 20.7 mph - N/A   Overcast
5:53 AM 37.9 °F 27.1 °F 33.1 °F 83% 30.14 in 10.0 mi NW 23.0 mph 33.4 mph N/A   Overcast
6:53 AM 37.0 °F 27.7 °F 32.0 °F 82% 30.17 in 10.0 mi NW 16.1 mph 24.2 mph N/A   Mostly Cloudy
7:53 AM 37.0 °F 25.9 °F 30.9 °F 79% 30.19 in 10.0 mi NNW 23.0 mph 28.8 mph N/A   Scattered Clouds
8:06 AM 37.4 °F 27.2 °F 30.2 °F 75% 30.17 in 10.0 mi NW 19.6 mph 27.6 mph N/A   Mostly Cloudy
8:53 AM 39.0 °F 28.0 °F 30.9 °F 73% 30.22 in 10.0 mi NW 25.3 mph 33.4 mph N/A   Overcast
9:31 AM 41.0 °F 31.4 °F 32.0 °F 70% 30.20 in 10.0 mi NW 21.9 mph 28.8 mph N/A   Overcast
9:53 AM 41.0 °F 30.9 °F 32.0 °F 70% 30.24 in 10.0 mi NW 24.2 mph 32.2 mph N/A   Overcast
10:53 AM 41.0 °F 31.1 °F 32.0 °F 70% 30.25 in 10.0 mi NNW 23.0 mph 32.2 mph 0.00 in   Overcast
11:21 AM 41.0 °F 31.6 °F 33.8 °F 76% 30.23 in 10.0 mi WNW 20.7 mph 32.2 mph N/A   Overcast
11:30 AM 42.8 °F 34.3 °F 32.0 °F 66% 30.23 in 10.0 mi NW 19.6 mph 24.2 mph N/A   Overcast
11:53 AM 42.1 °F 32.6 °F 30.9 °F 65% 30.26 in 10.0 mi NW 23.0 mph 31.1 mph N/A   Overcast
12:03 PM 42.8 °F 33.8 °F 30.2 °F 61% 30.24 in 10.0 mi NW 21.9 mph 32.2 mph N/A   Overcast
12:53 PM 42.1 °F 33.1 °F 32.0 °F 67% 30.28 in 10.0 mi NW 20.7 mph 29.9 mph 0.00 in   Overcast
1:14 PM 42.8 °F 33.8 °F 32.0 °F 66% 30.25 in 10.0 mi NW 21.9 mph 32.2 mph 0.00 in   Overcast
1:24 PM 42.8 °F 33.1 °F 30.2 °F 61% 30.25 in 10.0 mi NW 25.3 mph 33.4 mph 0.00 in   Overcast
1:53 PM 44.1 °F 34.6 °F 30.0 °F 58% 30.27 in 10.0 mi NW 26.5 mph 33.4 mph 0.00 in   Overcast
2:53 PM 45.0 °F 36.6 °F 28.9 °F 53% 30.28 in 10.0 mi NW 21.9 mph 32.2 mph N/A   Overcast
3:53 PM 45.0 °F 37.1 °F 30.0 °F 56% 30.28 in 10.0 mi NW 19.6 mph 29.9 mph N/A   Overcast
4:53 PM 45.0 °F 36.9 °F 28.9 °F 53% 30.29 in 10.0 mi NW 20.7 mph 26.5 mph N/A   Overcast
5:53 PM 45.0 °F 38.2 °F 28.9 °F 53% 30.30 in 10.0 mi NW 15.0 mph - N/A   Overcast
6:53 PM 44.1 °F 35.7 °F 27.0 °F 51% 30.31 in 10.0 mi NNW 20.7 mph 25.3 mph N/A   Overcast
7:53 PM 42.8 °F 37.0 °F 28.4 °F 57% 30.29 in 10.0 mi NNW 10.4 mph - N/A   Overcast
8:53 PM 39.9 °F 35.8 °F 28.0 °F 63% 30.32 in 10.0 mi NW 5.8 mph - N/A   Overcast
9:53 PM 41.0 °F 35.2 °F 28.0 °F 60% 30.33 in 10.0 mi WNW 9.2 mph - N/A   Overcast
10:53 PM 39.0 °F 32.8 °F 27.0 °F 62% 30.33 in 10.0 mi NW 9.2 mph - N/A   Overcast
11:53 PM 36.0 °F 29.0 °F 26.1 °F 67% 30.33 in 10.0 mi WNW 9.2 mph - N/A   Clear